Regional Weather Roundup
Issued by NWS

Home | Current Version | Previous Version | Graphics & Text | Print | Product List | Glossary On
Versions: 1 2 3 4 5 6 7 8 9 10 11 12 13 14 15 16 17 18 19 20 21 22 23 24 25 26 27 28 29 30 31 32 33 34 35 36 37 38 39 40 41 42 43 44 45 46 47 48 49 50
000
ASUS43 KOAX 011702
RWRNE

WEATHER ROUNDUP FOR NEBRASKA
NATIONAL WEATHER SERVICE OMAHA NE
1200 PM CDT WED OCT 01 2014

NOTES: SATELLITE DATA IS BEING USED TO AUGMENT CLOUD COVER ABOVE
       12000 FEET.
       "FAIR" INDICATES FEW OR NO CLOUDS BELOW 12,000 FEET WITH NO
       SIGNIFICANT WEATHER AND/OR OBSTRUCTIONS TO VISIBILITY.

  * THESE STATIONS DO NOT REPORT WEATHER SUCH AS RAIN...SNOW OR FOG.

NEZ001>004-019>022-054>056-011800-
NEBRASKA PANHANDLE

CITY           SKY/WX    TMP DP  RH WIND       PRES   REMARKS
SCOTTSBLUFF    MOSUNNY   60  48  64 VRB5      29.89F
ALLIANCE       CLOUDY    59  46  62 NW6       29.88R
CHADRON        CLOUDY    58  47  66 NW9       29.88S
KIMBALL        MOSUNNY   59  41  50 N8        29.89F
SIDNEY         MOSUNNY   62  45  53 NE9       29.89F
$$

NEZ057>060-069>072-079>082-011800-
SOUTHWEST NEBRASKA

CITY           SKY/WX    TMP DP  RH WIND       PRES   REMARKS
NORTH PLATTE   MOSUNNY   70  48  45 VRB7      29.82S
IMPERIAL       PTSUNNY   65  46  50 N7        29.85R
LEXINGTON      MOSUNNY   69  51  52 NW6       29.80S
MCCOOK         MOSUNNY   68  50  52 NE5       29.82S
OGALLALA       MOSUNNY   68  49  50 N8        29.85S
$$

NEZ005>010-023>029-035>040-094-011800-
NORTH CENTRAL NEBRASKA

CITY           SKY/WX    TMP DP  RH WIND       PRES   REMARKS
VALENTINE      SUNNY     67  48  50 N10G18    29.83R
AINSWORTH      SUNNY     65  47  52 N10       29.82S
BROKEN BOW     SUNNY     73  51  46 N10       29.79S
O`NEILL        SUNNY     70  53  54 N13       29.78F
ORD            MOSUNNY   72  51  47 N7        29.77S
THEDFORD       SUNNY     69  49  48 N9        29.83S
$$

NEZ041-046>049-061>064-073>077-083>087-011800-
SOUTH CENTRAL NEBRASKA

CITY           SKY/WX    TMP DP  RH WIND       PRES   REMARKS
GRAND ISLAND   MOSUNNY   69  59  70 CALM      29.79R
AURORA         MOSUNNY   73  60  64 CALM      29.77S
HASTINGS       MOSUNNY   72  56  57 CALM      29.78S
HEBRON         MOSUNNY   69  62  79 SE3       29.77S
HOLDREGE       MOSUNNY   72  49  44 CALM      29.79S
KEARNEY *      PTSUNNY   70  55  60 CALM      29.80S
YORK           SUNNY     72  63  73 CALM      29.76F
$$

NEZ011>018-030>034-042>045-011800-
NORTHEAST NEBRASKA

CITY           SKY/WX    TMP DP  RH WIND       PRES   REMARKS
NORFOLK        SUNNY     72  59  63 S6        29.76R
ALBION         SUNNY     71  54  55 W3        29.77S
BLAIR          CLOUDY    71  63  77 S5        29.76S
COLUMBUS *     SUNNY     72  61  68 SW3       29.77S
FREMONT        SUNNY     71  62  73 SE8       29.75F
TEKAMAH        SUNNY     73  60  63 S9        29.74F
WAYNE          MOSUNNY   73  60  64 S8        29.75S
$$

NEZ050>053-065>068-078-088>093-011800-
SOUTHEAST NEBRASKA

CITY           SKY/WX    TMP DP  RH WIND       PRES   REMARKS
LINCOLN        CLOUDY    67  61  81 CALM      29.77S
OMAHA EPPLEY   PTSUNNY   69  62  78 VRB6      29.76S
BEATRICE       MOSUNNY   72  64  76 CALM      29.76S
FALLS CITY     PTSUNNY   72  67  84 S8        29.75F
NEBRASKA CITY  CLOUDY    69  69  99 S3        29.75F
PLATTSMOUTH      N/A     67  64  87 CALM      29.76S
$$

NEZ044-045-051>053-067-011800-
OMAHA AREA

CITY           SKY/WX    TMP DP  RH WIND       PRES   REMARKS
OMAHA EPPLEY   PTSUNNY   69  62  78 VRB6      29.76S
BLAIR          CLOUDY    71  63  77 S5        29.76S
FREMONT        SUNNY     71  62  73 SE8       29.75F
MILLARD        CLOUDY    68  63  84 CALM      29.76S
OFFUTT AFB     CLOUDY    68  68  99 SE5       29.75S
PLATTSMOUTH      N/A     67  64  87 CALM      29.76S
WAHOO          PTSUNNY   69  61  77 SE8       29.76F
$$


USA.gov is the U.S. government's official web portal to all federal, state and local government web resources and services.